Temp_Advection
nan nan nan nan nan nan nan nan nan nan nan nan nan nan nan nan nan nan nan nan nan nan nan nan nan nan nan nan nan nan nan nan nan nan nan nan nan nan nan nan nan nan nan
nan -1 -1 -0 0 0 0 0 0 0 0 0 0 0 0 0 -0 -0 -0 -0 -0 -0 0 -0 0 0 -0 -0 -0 0 0 0 0 0 0 0 0 0 0 0 0 0 nan
nan -1 -0 -0 -0 -0 -0 -0 0 -0 0 0 0 0 0 0 0 -0 -0 -0 -0 -0 0 0 0 -0 -0 -0 -0 -0 -0 0 0 0 0 0 0 0 0 0 0 0 nan
nan -1 -1 -0 -0 -0 -0 -0 -0 0 0 0 0 0 0 0 0 0 0 0 0 -0 -0 0 -0 0 0 -0 -0 -0 -0 0 0 0 0 0 0 0 0 0 0 0 nan
nan -0 -0 -0 0 0 -0 -0 -0 0 0 -0 -0 0 0 0 0 0 0 0 0 0 0 0 0 -0 0 0 0 0 -0 0 0 0 0 0 0 0 0 0 0 0 nan
nan 0 -0 -0 -0 0 0 0 0 -0 -0 -0 -0 0 0 0 0 0 0 0 0 0 0 0 0 0 0 0 0 0 0 0 0 0 0 0 0 0 0 0 0 0 nan
nan 0 0 0 -0 -0 0 0 -0 -0 -0 -0 -0 0 0 0 0 0 0 0 0 0 0 0 0 0 0 0 0 0 0 0 0 0 0 0 0 0 0 0 0 0 nan
nan 0 0 0 -0 -0 0 0 0 -0 -0 -0 0 -0 -0 0 0 0 0 0 0 0 0 0 0 0 0 0 0 0 0 0 0 0 0 0 0 0 0 0 0 0 nan
nan 0 0 -0 -0 -0 0 0 0 0 0 0 0 -0 -0 0 0 0 0 0 0 0 0 0 0 0 0 0 0 0 0 -0 0 0 -0 0 0 -0 0 0 0 0 nan
nan 0 0 -0 -0 -0 -0 0 0 0 0 0 0 0 -0 -0 0 0 0 0 0 0 0 0 0 0 0 0 0 0 -0 0 -0 -0 -0 -0 -0 0 -0 0 0 0 nan
nan 0 0 0 -0 -0 -0 -0 -0 0 0 0 0 0 0 0 0 -0 0 0 0 0 0 0 0 0 0 0 0 0 0 -0 0 -0 0 -0 0 0 0 0 0 0 nan
nan -0 -0 0 0 -0 -0 -0 -0 -0 0 0 0 0 0 0 0 0 0 0 0 0 0 0 0 0 -0 -0 0 0 -0 0 0 0 0 0 0 0 0 0 0 0 nan
nan -0 -0 -0 0 -0 -0 -0 -0 -0 -0 0 0 0 0 0 0 0 0 0 0 0 0 0 0 0 0 0 0 0 0 0 0 0 0 0 0 0 0 0 0 0 nan
nan -0 0 -0 -0 -0 -0 0 -0 0 0 -0 0 0 0 0 0 0 0 0 0 0 0 0 0 0 0 0 0 0 0 0 0 0 0 0 0 0 0 0 0 0 nan
nan 0 0 0 0 0 0 0 0 0 0 0 0 0 0 0 0 0 0 0 0 0 0 0 0 0 0 0 0 0 0 0 0 0 0 0 0 0 0 0 0 0 nan
nan 0 0 0 0 1 0 -0 0 0 0 0 0 0 0 0 0 0 0 0 0 0 0 0 0 0 0 0 0 0 0 0 0 0 0 0 0 0 0 0 1 0 nan
nan 0 0 0 0 0 0 0 0 0 0 0 0 0 0 0 0 0 0 0 0 0 0 0 0 0 0 0 0 0 0 0 0 0 1 0 0 0 0 0 0 0 nan
nan 0 0 1 0 0 0 0 1 1 1 1 0 0 0 0 0 0 0 0 1 1 0 0 0 0 0 0 0 0 0 0 0 0 0 1 0 0 0 0 0 0 nan
nan -0 -0 -0 0 0 0 1 1 1 1 1 1 0 1 1 0 0 0 1 1 1 1 0 0 0 0 0 0 0 0 0 0 0 0 0 0 -0 0 0 0 0 nan
nan -0 -0 0 0 1 2 1 1 1 0 0 1 1 1 1 0 0 0 1 1 1 0 0 0 0 0 0 0 1 0 0 0 0 1 0 -0 -0 0 0 0 0 nan
nan 0 1 1 0 1 1 0 -0 -1 0 1 0 1 1 1 0 0 1 1 1 1 0 1 -0 0 0 0 0 1 0 0 1 0 -0 -0 -0 0 0 0 0 0 nan
nan 0 1 -0 -0 0 -0 1 1 1 1 1 1 0 0 0 0 0 0 1 1 1 0 0 -0 0 0 0 1 1 0 0 0 0 0 -0 -0 0 0 0 0 0 nan
nan 0 0 0 1 0 2 4 4 1 -1 -1 -0 0 0 0 0 0 0 1 1 0 1 1 -0 -0 0 0 1 1 0 0 -0 -0 0 -0 -0 0 0 0 0 0 nan
nan 1 0 1 2 2 4 3 -1 -2 -1 -0 0 1 1 1 0 0 0 1 1 1 1 0 -0 0 0 1 1 0 -0 0 0 0 0 0 0 0 0 0 0 0 nan
nan 1 0 1 1 2 1 -1 -1 -0 0 -0 0 1 1 1 1 1 1 0 1 1 1 0 0 0 0 0 0 0 1 1 -0 -0 0 -0 -0 0 0 -0 -0 -0 nan
nan nan nan nan nan nan nan nan nan nan nan nan nan nan nan nan nan nan nan nan nan nan nan nan nan nan nan nan nan nan nan nan nan nan nan nan nan nan nan nan nan nan nan
Wind_Speed
25 28 27 26 24 22 20 20 20 19 18 16 15 13 12 11 11 12 12 13 12 12 12 11 11 11 8 8 9 8 7 6 8 9 10 12 15 15 15 16 17 18 18
27 27 26 25 24 22 21 21 20 19 18 17 16 15 13 11 11 12 12 11 12 12 12 11 11 10 9 8 7 7 6 6 7 9 12 15 15 16 16 16 17 18 18
26 25 27 25 23 22 22 21 21 20 18 17 16 15 14 12 11 11 11 11 10 10 10 10 9 8 7 7 6 5 5 5 6 9 13 16 17 16 17 17 16 17 16
23 26 26 25 24 23 22 22 21 21 19 17 16 15 14 13 12 11 11 10 9 10 10 10 9 8 7 6 5 5 5 6 8 10 13 13 17 17 18 17 17 16 16
25 26 25 25 24 24 22 22 22 21 19 17 16 16 15 14 13 12 11 10 10 10 10 10 10 9 9 8 7 7 7 8 9 10 13 14 17 18 18 18 17 17 15
27 26 26 25 24 23 21 21 21 20 19 18 16 16 16 15 14 12 12 11 10 10 10 10 10 11 10 9 8 8 9 9 10 13 12 13 15 19 19 17 17 17 15
29 28 26 24 23 21 20 20 20 20 18 17 17 17 17 16 15 14 13 13 12 10 10 10 11 11 11 9 8 9 10 10 11 11 11 13 13 19 19 19 16 15 15
29 28 26 24 22 21 20 20 20 19 17 17 17 18 17 17 16 15 14 14 12 11 10 10 12 11 11 10 9 10 11 10 11 11 12 14 13 17 19 17 15 12 11
27 27 27 25 23 21 19 19 19 18 17 17 17 18 18 17 16 16 15 15 14 12 12 12 12 11 11 10 10 11 10 10 10 12 13 15 16 17 7 10 10 10 11
28 27 26 24 24 23 21 20 19 18 17 17 17 17 17 18 17 17 16 16 15 14 14 13 12 11 11 9 8 8 10 10 10 12 12 13 15 11 10 12 13 12 10
31 29 27 25 24 23 22 21 20 19 18 18 18 18 18 19 19 19 18 17 18 16 16 15 14 13 11 9 11 12 10 12 11 12 12 13 13 11 11 11 15 13 13
33 31 28 27 25 24 23 22 21 20 21 21 20 20 20 19 19 20 20 19 19 19 17 17 15 15 13 9 13 16 12 12 15 13 11 14 15 15 11 10 14 13 12
33 31 30 28 26 25 24 23 21 21 22 22 21 21 20 20 21 21 22 22 22 23 20 20 19 18 16 12 14 18 14 14 17 16 13 15 14 16 15 12 12 11 14
35 31 30 29 29 28 26 25 24 23 22 23 22 22 22 22 23 23 23 24 25 25 24 22 22 19 18 14 14 18 18 15 17 17 15 16 16 17 14 13 11 12 14
34 32 32 31 31 31 30 29 27 25 23 22 23 23 22 22 23 23 24 24 26 27 25 25 22 21 20 17 16 18 22 18 20 18 17 20 20 17 16 17 13 14 14
32 31 31 31 32 32 32 32 31 28 26 24 24 24 23 22 22 22 23 25 26 27 26 25 24 23 22 20 19 20 22 21 20 24 22 20 23 22 21 19 16 16 15
36 33 30 29 28 31 33 33 33 31 30 28 27 26 24 23 22 22 23 24 26 27 26 25 25 25 24 23 21 21 23 23 23 23 23 23 27 26 23 22 17 17 18
40 38 32 33 34 33 32 32 33 33 32 31 29 27 25 24 23 23 24 24 25 26 26 26 26 26 26 25 23 23 23 24 24 25 27 26 30 31 27 22 20 19 19
38 39 38 35 37 37 36 35 33 34 33 32 31 29 27 25 24 23 24 24 24 26 28 27 27 27 26 26 24 24 24 25 27 26 27 23 30 32 26 26 22 20 19
29 29 31 31 30 35 41 40 37 36 34 33 32 31 29 27 25 23 24 24 25 27 28 28 28 27 26 24 25 25 26 26 26 28 28 25 30 29 26 27 22 21 19
32 35 35 34 33 36 45 45 45 41 36 35 34 32 30 28 26 25 23 25 27 29 30 28 27 27 25 24 23 25 24 22 26 29 28 27 27 31 28 27 24 22 21
22 27 32 33 32 35 40 42 49 45 42 38 35 32 29 30 28 28 26 27 28 29 30 29 28 27 28 27 26 24 14 24 29 25 26 31 24 31 30 27 25 23 25
15 17 18 22 32 34 39 44 50 46 43 38 34 33 32 32 31 30 28 28 29 29 32 30 30 30 27 29 29 23 10 10 15 25 29 29 31 34 32 29 27 25 25
10 7 12 21 28 34 40 41 45 49 47 41 40 38 39 35 34 32 30 30 29 29 30 31 31 31 29 30 29 30 30 17 10 12 26 33 29 34 35 31 29 25 25
12 12 9 15 23 28 29 35 39 42 43 42 43 40 41 36 35 35 33 31 30 31 30 30 28 28 30 31 32 32 30 31 28 22 17 28 33 33 33 30 27 25 25
13 13 11 8 12 17 23 29 33 37 39 40 37 42 41 36 35 36 35 33 31 30 31 29 29 28 30 32 33 33 32 33 35 34 24 31 35 36 34 31 27 24 21
Wind_Direction
173 170 167 165 168 171 174 173 170 167 165 161 157 153 148 144 146 150 152 153 151 149 144 149 151 153 145 139 138 142 146 144 140 144 140 140 143 143 142 140 138 134 131
161 165 166 169 171 173 176 175 173 170 168 166 163 161 159 150 146 146 148 149 149 149 149 156 157 156 149 141 139 140 139 142 148 151 152 147 148 150 149 145 142 137 134
164 165 168 171 174 175 175 177 176 175 172 170 169 167 165 156 149 148 148 148 150 149 150 156 158 161 152 148 154 151 156 161 168 162 160 155 153 154 151 149 146 141 138
166 168 170 174 175 176 175 179 179 178 177 175 174 172 169 163 156 159 154 151 153 156 157 159 161 163 163 156 156 158 153 161 168 166 164 161 156 161 155 151 147 144 139
168 168 170 176 176 175 176 179 180 181 180 180 179 176 174 169 164 165 160 155 155 154 159 162 165 162 159 156 151 143 143 155 159 165 166 167 162 161 155 153 151 145 142
168 169 171 174 178 176 179 181 180 181 183 182 181 180 180 176 173 171 169 165 163 162 165 163 155 155 155 153 149 149 158 161 163 173 179 175 176 161 158 156 152 150 147
169 172 173 174 178 176 179 181 181 182 181 184 180 182 183 182 179 178 176 177 173 173 172 163 157 154 152 152 160 164 163 164 170 177 179 173 178 167 161 158 154 151 152
171 173 173 172 171 175 178 181 182 182 181 185 183 183 186 187 186 185 185 185 183 179 171 167 162 157 156 160 177 173 172 172 174 178 186 186 178 174 156 158 160 167 164
178 174 171 170 168 174 180 182 184 184 184 186 187 185 188 189 192 192 192 192 192 188 178 172 169 163 160 173 181 183 184 183 186 186 190 189 179 152 162 182 189 203 181
180 177 174 171 173 176 181 185 187 188 188 188 190 190 190 192 195 199 199 198 199 196 186 179 179 173 170 169 185 199 189 197 189 193 193 189 192 219 202 209 220 219 215
183 181 179 178 179 181 184 186 190 192 192 192 193 196 197 198 197 202 205 205 205 203 195 189 186 179 183 193 194 200 208 215 203 189 197 209 215 211 192 206 224 231 232
185 186 186 185 185 186 188 190 193 197 197 198 200 201 203 204 203 206 208 210 211 211 204 200 198 195 194 209 209 209 224 230 221 215 221 211 217 207 218 230 231 239 223
192 189 193 193 193 194 194 196 199 203 205 204 205 207 207 206 207 207 208 209 215 214 211 207 208 207 213 224 224 220 225 236 230 230 227 218 213 215 217 218 231 227 191
197 199 200 202 203 204 203 205 205 207 209 211 210 211 211 210 210 211 212 213 217 219 218 217 218 218 221 232 231 229 232 232 226 229 233 218 221 211 221 227 228 231 207
203 205 208 209 211 213 212 212 213 213 214 216 217 216 217 218 216 214 217 216 220 224 225 225 224 227 229 236 236 234 234 237 231 234 238 231 222 221 230 231 231 230 230
211 217 217 217 221 221 221 219 220 219 220 219 221 223 223 224 222 218 219 219 221 226 230 232 233 235 237 240 239 237 236 236 239 238 247 240 236 227 219 226 221 225 230
221 222 224 225 227 229 229 228 225 224 223 222 221 223 225 225 224 223 222 222 224 228 231 232 234 240 241 241 241 239 236 240 243 241 241 256 244 229 218 218 225 226 225
224 225 229 229 231 230 230 231 230 226 225 224 222 219 221 222 223 224 223 223 226 227 230 232 234 238 238 241 240 238 237 242 243 248 253 268 238 232 215 214 228 230 228
229 233 235 237 238 236 234 232 228 227 225 226 221 221 221 222 223 226 228 225 224 227 230 231 233 236 238 238 237 236 237 243 242 252 262 261 231 228 209 213 222 226 226
233 238 240 238 234 237 238 234 231 230 227 227 224 226 223 223 226 228 230 229 226 227 230 232 233 234 238 238 243 242 240 246 244 252 261 254 236 215 211 217 218 220 214
243 243 241 237 238 232 234 235 232 231 232 229 228 228 227 228 229 231 230 228 227 229 229 230 236 238 238 242 246 249 253 252 249 255 255 244 240 214 213 221 222 216 206
246 244 240 234 236 233 229 234 237 234 231 233 232 230 228 233 234 233 234 231 227 226 226 228 231 238 241 241 235 239 245 247 257 249 249 238 240 217 215 221 222 220 210
241 237 228 225 228 238 235 232 232 233 230 232 235 240 233 235 236 234 236 234 229 229 225 226 226 234 243 242 238 232 216 226 227 248 239 235 235 218 217 222 218 220 211
114 161 200 209 215 226 229 229 233 234 229 229 234 235 237 232 234 234 236 237 233 231 229 230 232 235 235 243 240 241 237 238 216 235 240 231 220 220 217 220 218 216 213
89 104 135 184 201 214 215 227 233 237 241 235 231 233 237 234 232 232 234 234 233 231 232 232 234 237 239 243 242 242 244 241 250 230 215 218 221 212 218 218 215 215 216
73 87 102 132 191 204 207 213 229 238 237 241 241 243 238 236 236 233 234 233 233 233 232 233 233 236 240 244 246 246 243 240 244 241 238 220 209 205 211 212 209 209 216
Height
1475 1480 1484 1486 1489 1492 1496 1497 1498 1500 1501 1503 1504 1505 1507 1508 1510 1512 1513 1515 1516 1518 1519 1521 1523 1524 1526 1527 1528 1530 1531 1531 1531 1532 1533 1535 1536 1537 1538 1539 1540 1541 1542
1471 1477 1481 1486 1488 1491 1494 1497 1498 1500 1502 1503 1505 1506 1508 1510 1512 1513 1515 1516 1517 1518 1520 1521 1524 1525 1526 1528 1530 1531 1531 1532 1532 1533 1535 1535 1537 1538 1540 1541 1542 1543 1544
1471 1475 1480 1483 1487 1489 1492 1496 1498 1499 1501 1503 1505 1507 1509 1511 1513 1515 1515 1517 1518 1519 1521 1522 1525 1526 1527 1529 1530 1531 1532 1533 1534 1534 1535 1536 1538 1540 1541 1542 1544 1545 1546
1469 1473 1478 1483 1485 1488 1490 1494 1497 1499 1500 1503 1505 1508 1509 1511 1513 1515 1516 1518 1519 1520 1522 1523 1525 1526 1528 1529 1531 1531 1533 1535 1535 1536 1537 1539 1539 1541 1542 1544 1546 1547 1548
1470 1472 1476 1481 1484 1486 1489 1492 1495 1497 1499 1502 1505 1508 1510 1511 1513 1515 1517 1519 1520 1521 1522 1523 1524 1526 1528 1529 1530 1532 1533 1535 1536 1538 1538 1539 1540 1542 1543 1545 1546 1548 1550
1470 1473 1475 1480 1484 1486 1489 1491 1493 1496 1499 1501 1504 1507 1510 1511 1513 1515 1517 1519 1520 1522 1523 1524 1525 1526 1528 1530 1531 1532 1533 1535 1537 1538 1540 1541 1542 1543 1545 1547 1548 1549 1551
1469 1473 1475 1478 1482 1485 1488 1491 1492 1495 1497 1500 1502 1507 1510 1512 1513 1515 1517 1519 1520 1522 1524 1525 1526 1527 1529 1531 1531 1532 1534 1536 1537 1540 1541 1542 1543 1544 1546 1547 1550 1551 1552
1468 1471 1473 1476 1480 1484 1487 1490 1492 1493 1495 1499 1501 1504 1509 1511 1513 1515 1517 1518 1520 1522 1524 1525 1527 1528 1529 1531 1531 1533 1535 1536 1538 1540 1542 1542 1545 1544 1545 1548 1550 1553 1553
1470 1471 1472 1475 1478 1483 1487 1489 1491 1493 1495 1497 1501 1502 1507 1510 1513 1515 1516 1518 1520 1522 1524 1525 1527 1528 1530 1531 1532 1533 1536 1537 1539 1540 1541 1543 1544 1545 1542 1549 1551 1554 1553
1468 1470 1472 1474 1477 1480 1484 1488 1491 1493 1494 1496 1499 1502 1504 1507 1511 1514 1516 1517 1519 1521 1523 1525 1527 1529 1530 1532 1533 1534 1536 1538 1539 1540 1542 1544 1544 1544 1545 1547 1553 1554 1553
1466 1468 1470 1472 1476 1479 1482 1486 1490 1492 1494 1495 1497 1500 1502 1505 1508 1511 1514 1516 1517 1520 1521 1523 1526 1529 1530 1532 1533 1534 1536 1537 1538 1539 1541 1544 1545 1545 1546 1549 1551 1552 1552
1461 1464 1468 1470 1474 1477 1481 1484 1487 1490 1492 1494 1495 1497 1500 1503 1505 1508 1512 1514 1516 1518 1520 1522 1524 1526 1528 1530 1533 1533 1535 1536 1538 1539 1540 1542 1543 1544 1544 1545 1550 1550 1550
1456 1461 1464 1468 1472 1475 1478 1482 1484 1487 1489 1492 1494 1496 1498 1500 1503 1505 1508 1511 1514 1516 1518 1520 1521 1522 1526 1528 1530 1532 1533 1535 1536 1538 1538 1540 1541 1543 1545 1546 1548 1548 1548
1454 1457 1461 1465 1468 1472 1475 1479 1481 1484 1486 1489 1491 1494 1495 1497 1500 1502 1504 1508 1511 1513 1515 1517 1519 1521 1523 1526 1528 1530 1531 1533 1534 1536 1537 1538 1540 1540 1542 1545 1546 1547 1547
1452 1455 1458 1461 1465 1467 1471 1475 1478 1480 1483 1486 1489 1490 1493 1494 1496 1499 1502 1505 1508 1511 1513 1515 1517 1519 1520 1523 1525 1527 1529 1530 1532 1533 1535 1536 1537 1539 1540 1543 1544 1545 1546
1451 1454 1456 1459 1461 1464 1467 1470 1474 1477 1479 1482 1486 1488 1489 1492 1493 1496 1499 1501 1504 1507 1510 1512 1515 1516 1518 1520 1522 1525 1527 1528 1530 1531 1532 1534 1535 1535 1537 1540 1542 1544 1545
1448 1451 1452 1455 1458 1461 1463 1466 1469 1473 1475 1478 1481 1484 1486 1488 1490 1492 1495 1497 1501 1504 1507 1509 1511 1513 1515 1516 1519 1521 1523 1526 1526 1528 1529 1531 1532 1533 1534 1537 1541 1543 1544
1445 1447 1449 1451 1454 1457 1459 1462 1465 1468 1471 1473 1477 1480 1483 1485 1487 1489 1491 1494 1498 1501 1503 1505 1507 1509 1511 1513 1514 1517 1519 1522 1523 1524 1525 1525 1527 1529 1531 1533 1539 1541 1542
1440 1443 1445 1446 1449 1453 1455 1457 1460 1463 1466 1469 1473 1476 1479 1482 1483 1485 1487 1490 1494 1497 1499 1501 1503 1505 1507 1509 1511 1513 1515 1517 1519 1520 1520 1520 1522 1522 1527 1531 1536 1538 1540
1432 1433 1435 1439 1443 1446 1449 1454 1456 1459 1463 1466 1468 1471 1474 1477 1479 1481 1483 1486 1489 1493 1495 1497 1499 1501 1504 1506 1508 1509 1511 1513 1515 1516 1516 1516 1516 1518 1523 1529 1532 1535 1538
1425 1425 1426 1430 1436 1438 1441 1445 1449 1451 1457 1460 1464 1467 1470 1473 1475 1477 1479 1482 1484 1487 1490 1494 1497 1498 1500 1503 1505 1506 1507 1509 1509 1510 1510 1512 1513 1516 1520 1525 1528 1531 1535
1413 1416 1419 1424 1428 1430 1432 1437 1440 1444 1448 1454 1458 1463 1467 1469 1471 1472 1474 1477 1479 1483 1486 1489 1492 1495 1496 1498 1500 1502 1504 1505 1504 1505 1506 1507 1508 1512 1517 1521 1525 1529 1532
1405 1407 1410 1416 1421 1424 1428 1430 1433 1438 1442 1449 1454 1457 1460 1464 1466 1468 1470 1472 1474 1477 1480 1484 1487 1490 1491 1493 1495 1498 1498 1498 1498 1500 1501 1503 1506 1508 1513 1518 1521 1525 1529
1405 1403 1404 1407 1412 1417 1422 1425 1429 1430 1433 1441 1446 1450 1453 1457 1461 1464 1465 1468 1470 1472 1475 1478 1481 1484 1487 1488 1490 1491 1492 1495 1494 1497 1496 1499 1500 1504 1509 1514 1518 1522 1526
1404 1400 1400 1403 1406 1411 1416 1420 1425 1429 1433 1436 1440 1444 1446 1451 1453 1457 1460 1462 1464 1466 1469 1472 1476 1479 1482 1483 1484 1485 1488 1490 1492 1492 1491 1493 1495 1499 1505 1510 1514 1518 1522
1401 1399 1401 1402 1404 1407 1412 1416 1420 1424 1427 1432 1438 1440 1440 1445 1449 1452 1454 1456 1458 1460 1463 1467 1470 1473 1476 1477 1479 1480 1481 1483 1484 1485 1485 1486 1488 1493 1500 1506 1510 1514 1518